This is the latest recevied weather packets stored in our database for station/object PA0HHN. If no packets are shown the sender has not sent any weather packets the latest 10 day(s).
| Time | Temp. | Humidity | Pressure | Rain* | Wind** | Luminosity | Snow |
|---|---|---|---|---|---|---|---|
| 1777532402 | 12.22° C | 45% | 1025.9 hPa | - | - | - | - |
| 1777524301 | 3.89° C | 75% | 1025.5 hPa | - | - | - | - |
| 1777523404 | 5° C | 74% | 1025.5 hPa | - | - | - | - |
| 1777522501 | 5° C | 72% | 1025.1 hPa | - | - | - | - |
| 1777521601 | 5° C | 72% | 1025.3 hPa | - | - | - | - |
| 1777520702 | 5° C | 73% | 1024.9 hPa | - | - | - | - |
| 1777519802 | 5° C | 71% | 1025.1 hPa | - | - | - | - |
| 1777518902 | 5° C | 71% | 1024.9 hPa | - | - | - | - |
| 1777518001 | 5° C | 71% | 1025.2 hPa | - | - | - | - |
| 1777517101 | 5° C | 72% | 1025.1 hPa | - | - | - | - |
| 1777516200 | 5° C | 72% | 1024.7 hPa | - | - | - | - |
| 1777515300 | 5° C | 70% | 1024.8 hPa | - | - | - | - |
| 1777513503 | 5° C | 73% | 1024.8 hPa | - | - | - | - |
| 1777509903 | 7.22° C | 65% | 1024.4 hPa | - | - | - | - |
| 1777502703 | 7.78° C | 61% | 1023.8 hPa | - | - | - | - |
| 1777501803 | 7.78° C | 61% | 1023.8 hPa | - | - | - | - |
| 1777500902 | 8.89° C | 60% | 1023.7 hPa | - | - | - | - |
| 1777500001 | 8.89° C | 59% | 1023.5 hPa | - | - | - | - |
| 1777499102 | 10° C | 56% | 1023.5 hPa | - | - | - | - |
| 1777498201 | 8.89° C | 56% | 1023.8 hPa | - | - | - | - |
| 1777497303 | 10° C | 55% | 1023.7 hPa | - | - | - | - |
| 1777491901 | 12.78° C | 42% | 1022.8 hPa | - | - | - | - |
| 1777491002 | 13.89° C | 40% | 1022.5 hPa | - | - | - | - |
| 1777490102 | 15° C | 39% | 1022.7 hPa | - | - | - | - |
| 1777489202 | 15° C | 38% | 1022.5 hPa | - | - | - | - |
* Rain since midnight (hover to see other rain measurements)
** Current wind speed in m/s (hover to see current wind gust speed)